Location: Central Falls
(41.8900°N, 71.3929°W)
Time: 02:14:01
(UTC+00:00)

Tiros 1 - Pass Details

Date: 15 December 2023
Orbit: 625 x 658 km, 48.4° (Epoch: 01 March)

Event Time Altitude Azimuth Distance (km) Brightness Sun altitude
Rises 03:20:00 0° 184° (S) 2,927 - -64.9°
Reaches altitude 10° 03:23:39 10° 154° (SSE) 2,033 - -65.4°
Maximum altitude 03:25:33 12° 130° (SE) 1,886 - -65.7°
Drops below altitude 10° 03:27:28 10° 106° (ESE) 2,047 - -65.9°
Sets 03:31:09 0° 77° (ENE) 2,971 - -66.4°
